Previsão horária em Abel Tasman National Park

Hoje, 25 Janeiro, Segunda-feira

Tempo Temperatura Precipitação Vento Pressão Humidade
00:00 +11°C° 0 mm 4 m/s 727 mmHg 81%
01:00 +11°C° 0 mm 4 m/s 727 mmHg 81%
02:00 +11°C° 0 mm 4 m/s 727 mmHg 81%
03:00 +12°C° 0 mm 3 m/s 727 mmHg 81%
04:00 +12°C° 0 mm 3 m/s 727 mmHg 81%
05:00 +12°C° 0 mm 3 m/s 727 mmHg 81%
06:00 +11°C° 0 mm 4 m/s 726 mmHg 81%
07:00 +14°C° 0 mm 3 m/s 727 mmHg 72%
08:00 +17°C° 0 mm 3 m/s 727 mmHg 63%
09:00 +20°C° 0 mm 3 m/s 728 mmHg 54%
10:00 +21°C° 0 mm 3 m/s 728 mmHg 50%
11:00 +24°C° 0 mm 3 m/s 727 mmHg 46%
12:00 +26°C° 0 mm 3 m/s 727 mmHg 42%
13:00 +26°C° 0 mm 3 m/s 727 mmHg 42%
14:00 +26°C° 0 mm 4 m/s 727 mmHg 42%
15:00 +26°C° 0 mm 4 m/s 727 mmHg 42%
16:00 +25°C° 0 mm 4 m/s 727 mmHg 44%
17:00 +23°C° 0 mm 4 m/s 726 mmHg 46%
18:00 +23°C° 0 mm 4 m/s 726 mmHg 49%
19:00 +21°C° 0 mm 4 m/s 726 mmHg 54%
20:00 +19°C° 0 mm 4 m/s 726 mmHg 60%
21:00 +18°C° 0 mm 3 m/s 727 mmHg 65%
22:00 +17°C° 0 mm 3 m/s 727 mmHg 65%
23:00 +16°C° 0 mm 3 m/s 727 mmHg 66%

Amanhã, 26 Janeiro, Terça-feira

Tempo Temperatura Precipitação Vento Pressão Humidade
00:00 +16°C° 0 mm 2 m/s 727 mmHg 64%
01:00 +15°C° 0 mm 2 m/s 727 mmHg 64%
02:00 +15°C° 0 mm 2 m/s 727 mmHg 65%
03:00 +14°C° 0 mm 3 m/s 727 mmHg 65%
04:00 +14°C° 0 mm 3 m/s 728 mmHg 65%
05:00 +15°C° 0 mm 2 m/s 728 mmHg 64%
06:00 +15°C° 0 mm 2 m/s 728 mmHg 63%
07:00 +18°C° 0 mm 2 m/s 728 mmHg 57%
08:00 +22°C° 0 mm 1 m/s 729 mmHg 51%
09:00 +24°C° 0 mm 1 m/s 729 mmHg 45%
10:00 +25°C° 0 mm 1 m/s 729 mmHg 43%
11:00 +26°C° 0 mm 2 m/s 729 mmHg 42%
12:00 +27°C° 0 mm 3 m/s 729 mmHg 40%
13:00 +28°C° 0 mm 3 m/s 729 mmHg 40%
14:00 +28°C° 0 mm 3 m/s 729 mmHg 40%
15:00 +28°C° 0 mm 3 m/s 729 mmHg 40%
16:00 +27°C° 0 mm 2 m/s 729 mmHg 44%
17:00 +26°C° 0 mm 2 m/s 728 mmHg 48%
18:00 +25°C° 0 mm 2 m/s 728 mmHg 52%
19:00 +24°C° 0 mm 2 m/s 729 mmHg 55%
20:00 +22°C° 0 mm 1 m/s 729 mmHg 58%
21:00 +21°C° 0 mm 1 m/s 729 mmHg 61%
22:00 +20°C° 0 mm 1 m/s 729 mmHg 56%
23:00 +20°C° 0 mm 1 m/s 729 mmHg 51%

Depois de amanhã, 27 Janeiro, Quarta-feira

Tempo Temperatura Precipitação Vento Pressão Humidade
00:00 +20°C° 0 mm 1 m/s 729 mmHg 46%
01:00 +19°C° 0 mm 2 m/s 729 mmHg 45%
02:00 +19°C° 0 mm 2 m/s 729 mmHg 44%
03:00 +18°C° 0 mm 2 m/s 729 mmHg 43%
04:00 +18°C° 0 mm 2 m/s 729 mmHg 45%
05:00 +18°C° 0 mm 2 m/s 729 mmHg 47%
06:00 +19°C° 0 mm 1 m/s 729 mmHg 49%
07:00 +21°C° 0 mm 1 m/s 729 mmHg 45%
08:00 +24°C° 0 mm 1 m/s 729 mmHg 41%
09:00 +27°C° 0 mm 1 m/s 729 mmHg 38%
10:00 +28°C° 0 mm 1 m/s 729 mmHg 35%
11:00 +29°C° 0 mm 2 m/s 729 mmHg 32%
12:00 +30°C° 0 mm 2 m/s 729 mmHg 29%
13:00 +30°C° 0 mm 3 m/s 728 mmHg 29%
14:00 +30°C° 0 mm 4 m/s 728 mmHg 30%
15:00 +30°C° 0 mm 5 m/s 728 mmHg 30%
16:00 +28°C° 0 mm 5 m/s 728 mmHg 33%
17:00 +27°C° 0 mm 5 m/s 728 mmHg 35%
18:00 +26°C° 0 mm 5 m/s 727 mmHg 37%
19:00 +23°C° 0 mm 5 m/s 728 mmHg 45%
20:00 +20°C° 0 mm 5 m/s 728 mmHg 53%
21:00 +17°C° 0 mm 4 m/s 728 mmHg 61%
22:00 +17°C° 0 mm 4 m/s 727 mmHg 65%
23:00 +15°C° 0 mm 4 m/s 727 mmHg 69%

28 Janeiro, Quinta-feira

Tempo Temperatura Precipitação Vento Pressão Humidade
00:00 +14°C° 0 mm 4 m/s 726 mmHg 73%
01:00 +14°C° 0 mm 4 m/s 726 mmHg 75%
02:00 +15°C° 0 mm 4 m/s 725 mmHg 77%
03:00 +15°C° 0 mm 4 m/s 725 mmHg 79%
04:00 +15°C° 0.1 mm 5 m/s 724 mmHg 83%
05:00 +16°C° 0.1 mm 6 m/s 724 mmHg 86%
06:00 +16°C° 0.1 mm 7 m/s 724 mmHg 90%
07:00 +16°C° 0.1 mm 6 m/s 724 mmHg 84%
08:00 +17°C° 0.1 mm 5 m/s 724 mmHg 78%
09:00 +19°C° 0.1 mm 4 m/s 724 mmHg 72%
10:00 +20°C° 0 mm 4 m/s 725 mmHg 57%
11:00 +21°C° 0 mm 4 m/s 725 mmHg 42%
12:00 +22°C° 0 mm 4 m/s 725 mmHg 27%
13:00 +22°C° 0 mm 4 m/s 725 mmHg 27%
14:00 +22°C° 0 mm 4 m/s 725 mmHg 27%
15:00 +22°C° 0 mm 4 m/s 725 mmHg 27%
16:00 +21°C° 0 mm 4 m/s 725 mmHg 32%
17:00 +20°C° 0 mm 4 m/s 726 mmHg 36%
18:00 +20°C° 0 mm 4 m/s 726 mmHg 41%
19:00 +17°C° 0 mm 4 m/s 726 mmHg 52%
20:00 +14°C° 0 mm 3 m/s 727 mmHg 63%
21:00 +11°C° 0 mm 3 m/s 727 mmHg 74%
22:00 +11°C° 0 mm 3 m/s 727 mmHg 77%
23:00 +11°C° 0 mm 3 m/s 728 mmHg 80%

29 Janeiro, Sexta-feira

Tempo Temperatura Precipitação Vento Pressão Humidade
00:00 +11°C° 0 mm 3 m/s 728 mmHg 83%
01:00 +10°C° 0.1 mm 3 m/s 728 mmHg 84%
02:00 +10°C° 0.1 mm 3 m/s 728 mmHg 84%
03:00 +10°C° 0.1 mm 2 m/s 728 mmHg 84%
04:00 +9°C° 0.2 mm 2 m/s 728 mmHg 83%
05:00 +9°C° 0.2 mm 2 m/s 728 mmHg 82%
06:00 +9°C° 0.2 mm 2 m/s 728 mmHg 81%
07:00 +10°C° 0.2 mm 2 m/s 728 mmHg 77%
08:00 +12°C° 0.2 mm 2 m/s 729 mmHg 73%
09:00 +13°C° 0.2 mm 2 m/s 729 mmHg 69%
10:00 +12°C° 0.2 mm 3 m/s 729 mmHg 72%
11:00 +12°C° 0.2 mm 4 m/s 729 mmHg 74%
12:00 +12°C° 0.2 mm 5 m/s 729 mmHg 77%
13:00 +12°C° 0.1 mm 5 m/s 729 mmHg 77%
14:00 +12°C° 0.1 mm 5 m/s 729 mmHg 77%
15:00 +10°C° 0.1 mm 5 m/s 729 mmHg 77%
16:00 +10°C° 0 mm 5 m/s 730 mmHg 76%
17:00 +10°C° 0 mm 5 m/s 730 mmHg 75%
18:00 +10°C° 0 mm 5 m/s 730 mmHg 74%
19:00 +10°C° 0 mm 5 m/s 731 mmHg 75%
20:00 +10°C° 0 mm 5 m/s 731 mmHg 76%
21:00 +9°C° 0 mm 5 m/s 732 mmHg 77%
22:00 +9°C° 0 mm 5 m/s 732 mmHg 78%
23:00 +8°C° 0 mm 4 m/s 733 mmHg 80%

30 Janeiro, Sábado

Tempo Temperatura Precipitação Vento Pressão Humidade
00:00 +9°C° 0 mm 3 m/s 733 mmHg 82%
01:00 +9°C° 0 mm 3 m/s 733 mmHg 83%
02:00 +9°C° 0 mm 2 m/s 733 mmHg 84%
03:00 +8°C° 0 mm 2 m/s 733 mmHg 85%
04:00 +8°C° 0 mm 2 m/s 733 mmHg 86%
05:00 +8°C° 0 mm 2 m/s 734 mmHg 86%
06:00 +8°C° 0 mm 2 m/s 734 mmHg 87%
07:00 +10°C° 0 mm 2 m/s 734 mmHg 77%
08:00 +12°C° 0 mm 2 m/s 735 mmHg 68%
09:00 +14°C° 0 mm 1 m/s 735 mmHg 58%
10:00 +15°C° 0 mm 2 m/s 735 mmHg 57%
11:00 +15°C° 0 mm 2 m/s 735 mmHg 55%
12:00 +16°C° 0 mm 2 m/s 735 mmHg 53%
13:00 +16°C° 0 mm 3 m/s 735 mmHg 53%
14:00 +17°C° 0 mm 3 m/s 735 mmHg 52%
15:00 +17°C° 0 mm 4 m/s 734 mmHg 51%
16:00 +16°C° 0 mm 3 m/s 734 mmHg 55%
17:00 +16°C° 0 mm 3 m/s 734 mmHg 59%
18:00 +14°C° 0 mm 3 m/s 734 mmHg 63%
19:00 +14°C° 0 mm 2 m/s 735 mmHg 70%
20:00 +12°C° 0 mm 2 m/s 735 mmHg 78%
21:00 +10°C° 0 mm 1 m/s 735 mmHg 85%
22:00 +9°C° 0 mm 2 m/s 736 mmHg 86%
23:00 +9°C° 0 mm 2 m/s 736 mmHg 87%
Mostrar mais